owner,sensor,date,latitude,longitude,vertical_datum,wind_speed,wind_to_direction,wind_speed_of_gust,qcFlag 
DISL,ioos:station:DISL:BSCA:1,2012-07-01T00:00:00Z,30.3288,-87.8293,0.0,5.7,242.0,99.0,'11111222,11111222,11144222' 
DISL,ioos:station:DISL:BSCA:1,2012-07-01T00:30:00Z,30.3288,-87.8293,0.0,5.1,234.0,99.0,'11111222,11111222,11144222' 
DISL,ioos:station:DISL:BSCA:1,2012-07-01T01:00:00Z,30.3288,-87.8293,0.0,5.2,235.0,99.0,'11111222,11111222,11144222' 
DISL,ioos:station:DISL:BSCA:1,2012-07-01T01:30:00Z,30.3288,-87.8293,0.0,4.8,236.0,99.0,'11111222,11111222,11144222' 
DISL,ioos:station:DISL:BSCA:1,2012-07-01T02:00:00Z,30.3288,-87.8293,0.0,5.1,239.0,99.0,'11111222,11111222,11144222' 
DISL,ioos:station:DISL:BSCA:1,2012-07-01T02:30:00Z,30.3288,-87.8293,0.0,5.0,237.0,99.0,'11111222,11111222,11144222' 
DISL,ioos:station:DISL:BSCA:1,2012-07-01T03:00:00Z,30.3288,-87.8293,0.0,5.4,235.0,99.0,'11111222,11111222,11144222' 
DISL,ioos:station:DISL:BSCA:1,2012-07-01T03:30:00Z,30.3288,-87.8293,0.0,5.5,239.0,99.0,'11111222,11111222,11144222' 
DISL,ioos:station:DISL:BSCA:1,2012-07-01T04:00:00Z,30.3288,-87.8293,0.0,5.6,226.0,99.0,'11111222,11111222,11144222' 
DISL,ioos:station:DISL:BSCA:1,2012-07-01T04:30:00Z,30.3288,-87.8293,0.0,5.4,226.0,99.0,'11111222,11111222,11144222' 
DISL,ioos:station:DISL:BSCA:1,2012-07-01T05:00:00Z,30.3288,-87.8293,0.0,5.4,224.0,99.0,'11111222,11111222,11144222' 
DISL,ioos:station:DISL:BSCA:1,2012-07-01T05:30:00Z,30.3288,-87.8293,0.0,5.4,224.0,99.0,'11111222,11111222,11144222' 
DISL,ioos:station:DISL:BSCA:1,2012-07-01T06:00:00Z,30.3288,-87.8293,0.0,5.7,217.0,99.0,'11111222,11111222,11144222' 
DISL,ioos:station:DISL:BSCA:1,2012-07-01T06:30:00Z,30.3288,-87.8293,0.0,4.9,225.0,99.0,'11111222,11111222,11144222' 
DISL,ioos:station:DISL:BSCA:1,2012-07-01T07:00:00Z,30.3288,-87.8293,0.0,5.4,226.0,99.0,'11111222,11111222,11144222' 
DISL,ioos:station:DISL:BSCA:1,2012-07-01T07:30:00Z,30.3288,-87.8293,0.0,4.8,228.0,99.0,'11111222,11111222,11144222' 
DISL,ioos:station:DISL:BSCA:1,2012-07-01T08:00:00Z,30.3288,-87.8293,0.0,5.0,223.0,99.0,'11111222,11111222,11144222' 
DISL,ioos:station:DISL:BSCA:1,2012-07-01T08:30:00Z,30.3288,-87.8293,0.0,5.3,228.0,99.0,'11111222,11111222,11144222' 
DISL,ioos:station:DISL:BSCA:1,2012-07-01T09:00:00Z,30.3288,-87.8293,0.0,5.3,233.0,99.0,'11111222,11111222,11144222' 
DISL,ioos:station:DISL:BSCA:1,2012-07-01T09:30:00Z,30.3288,-87.8293,0.0,4.8,233.0,99.0,'11111222,11111222,11144222' 
DISL,ioos:station:DISL:BSCA:1,2012-07-01T10:00:00Z,30.3288,-87.8293,0.0,4.4,229.0,99.0,'11111222,11111222,11144222' 
DISL,ioos:station:DISL:BSCA:1,2012-07-01T10:30:00Z,30.3288,-87.8293,0.0,4.6,231.0,99.0,'11111222,11111222,11144222' 
DISL,ioos:station:DISL:BSCA:1,2012-07-01T11:00:00Z,30.3288,-87.8293,0.0,4.6,298.0,99.0,'11111222,11111222,11144222' 
DISL,ioos:station:DISL:BSCA:1,2012-07-01T11:30:00Z,30.3288,-87.8293,0.0,4.7,294.0,99.0,'11111222,11111222,11144222' 
DISL,ioos:station:DISL:BSCA:1,2012-07-01T12:00:00Z,30.3288,-87.8293,0.0,4.9,294.0,99.0,'11111222,11111222,11144222' 
DISL,ioos:station:DISL:BSCA:1,2012-07-01T12:30:00Z,30.3288,-87.8293,0.0,4.5,294.0,99.0,'11111222,11111222,11144222' 
DISL,ioos:station:DISL:BSCA:1,2012-07-01T13:00:00Z,30.3288,-87.8293,0.0,4.7,296.0,99.0,'11111222,11111222,11144222' 
DISL,ioos:station:DISL:BSCA:1,2012-07-01T13:30:00Z,30.3288,-87.8293,0.0,4.1,304.0,99.0,'11111222,11111222,11144222' 
DISL,ioos:station:DISL:BSCA:1,2012-07-01T14:00:00Z,30.3288,-87.8293,0.0,4.0,302.0,99.0,'11111222,11111222,11144222' 
DISL,ioos:station:DISL:BSCA:1,2012-07-01T14:30:00Z,30.3288,-87.8293,0.0,3.9,293.0,99.0,'11111222,11111222,11144222' 
DISL,ioos:station:DISL:BSCA:1,2012-07-01T15:00:00Z,30.3288,-87.8293,0.0,4.4,291.0,99.0,'11111222,11111222,11144222' 
DISL,ioos:station:DISL:BSCA:1,2012-07-01T15:30:00Z,30.3288,-87.8293,0.0,3.5,301.0,99.0,'11111222,11111222,11144222' 
DISL,ioos:station:DISL:BSCA:1,2012-07-01T16:00:00Z,30.3288,-87.8293,0.0,3.4,298.0,99.0,'11111222,11111222,11144222' 
DISL,ioos:station:DISL:BSCA:1,2012-07-01T16:30:00Z,30.3288,-87.8293,0.0,2.4,286.0,99.0,'11111222,11111222,11144222' 
DISL,ioos:station:DISL:BSCA:1,2012-07-01T17:00:00Z,30.3288,-87.8293,0.0,2.0,276.0,99.0,'11111222,11111222,11144222' 
DISL,ioos:station:DISL:BSCA:1,2012-07-01T17:30:00Z,30.3288,-87.8293,0.0,2.0,277.0,99.0,'11111222,11111222,11144222' 
DISL,ioos:station:DISL:BSCA:1,2012-07-01T18:00:00Z,30.3288,-87.8293,0.0,2.3,245.0,99.0,'11111222,11111222,11144222' 
DISL,ioos:station:DISL:BSCA:1,2012-07-01T18:30:00Z,30.3288,-87.8293,0.0,2.4,229.0,99.0,'11111222,11111222,11144222' 
DISL,ioos:station:DISL:BSCA:1,2012-07-01T19:00:00Z,30.3288,-87.8293,0.0,3.2,231.0,99.0,'11111222,11111222,11144222' 
DISL,ioos:station:DISL:BSCA:1,2012-07-01T19:30:00Z,30.3288,-87.8293,0.0,3.2,244.0,99.0,'11111222,11111222,11144222' 
DISL,ioos:station:DISL:BSCA:1,2012-07-01T20:00:00Z,30.3288,-87.8293,0.0,4.8,235.0,99.0,'11111222,11111222,11144222' 
DISL,ioos:station:DISL:BSCA:1,2012-07-01T20:30:00Z,30.3288,-87.8293,0.0,4.9,233.0,99.0,'11111222,11111222,11144222' 
DISL,ioos:station:DISL:BSCA:1,2012-07-01T21:00:00Z,30.3288,-87.8293,0.0,5.3,235.0,99.0,'11111222,11111222,11144222' 
DISL,ioos:station:DISL:BSCA:1,2012-07-01T21:30:00Z,30.3288,-87.8293,0.0,5.9,236.0,99.0,'11111222,11111222,11144222' 
DISL,ioos:station:DISL:BSCA:1,2012-07-01T22:00:00Z,30.3288,-87.8293,0.0,6.0,235.0,99.0,'11111222,11111222,11144222' 
DISL,ioos:station:DISL:BSCA:1,2012-07-01T22:30:00Z,30.3288,-87.8293,0.0,6.6,236.0,99.0,'11111222,11111222,11144222' 
DISL,ioos:station:DISL:BSCA:1,2012-07-01T23:00:00Z,30.3288,-87.8293,0.0,6.8,234.0,99.0,'11111222,11111222,11144222' 
DISL,ioos:station:DISL:BSCA:1,2012-07-01T23:30:00Z,30.3288,-87.8293,0.0,6.9,233.0,99.0,'11111222,11111222,11144222' 
DISL,ioos:station:DISL:BSCA:1,2012-07-02T00:00:00Z,30.3288,-87.8293,0.0,6.8,237.0,99.0,'11111222,11111222,11144222' 
DISL,ioos:station:DISL:BSCA:1,2012-07-02T00:30:00Z,30.3288,-87.8293,0.0,6.7,229.0,99.0,'11111222,11111222,11144222' 
DISL,ioos:station:DISL:BSCA:1,2012-07-02T01:00:00Z,30.3288,-87.8293,0.0,7.3,234.0,99.0,'11111222,11111222,11144222' 
DISL,ioos:station:DISL:BSCA:1,2012-07-02T01:30:00Z,30.3288,-87.8293,0.0,7.3,235.0,99.0,'11111222,11111222,11144222' 
DISL,ioos:station:DISL:BSCA:1,2012-07-02T02:00:00Z,30.3288,-87.8293,0.0,7.2,239.0,99.0,'11111222,11111222,11144222' 
DISL,ioos:station:DISL:BSCA:1,2012-07-02T02:30:00Z,30.3288,-87.8293,0.0,6.4,243.0,99.0,'11111222,11111222,11144222' 
DISL,ioos:station:DISL:BSCA:1,2012-07-02T03:00:00Z,30.3288,-87.8293,0.0,6.4,247.0,99.0,'11111222,11111222,11144222' 
DISL,ioos:station:DISL:BSCA:1,2012-07-02T03:30:00Z,30.3288,-87.8293,0.0,7.1,247.0,99.0,'11111222,11111222,11144222' 
DISL,ioos:station:DISL:BSCA:1,2012-07-02T04:00:00Z,30.3288,-87.8293,0.0,6.5,253.0,99.0,'11111222,11111222,11144222' 
DISL,ioos:station:DISL:BSCA:1,2012-07-02T04:30:00Z,30.3288,-87.8293,0.0,6.1,248.0,99.0,'11111222,11111222,11144222' 
DISL,ioos:station:DISL:BSCA:1,2012-07-02T05:00:00Z,30.3288,-87.8293,0.0,5.5,249.0,99.0,'11111222,11111222,11144222' 
DISL,ioos:station:DISL:BSCA:1,2012-07-02T05:30:00Z,30.3288,-87.8293,0.0,5.7,257.0,99.0,'11111222,11111222,11144222' 
DISL,ioos:station:DISL:BSCA:1,2012-07-02T06:00:00Z,30.3288,-87.8293,0.0,6.1,259.0,99.0,'11111222,11111222,11144222' 
DISL,ioos:station:DISL:BSCA:1,2012-07-02T06:30:00Z,30.3288,-87.8293,0.0,6.3,263.0,99.0,'11111222,11111222,11144222' 
DISL,ioos:station:DISL:BSCA:1,2012-07-02T07:00:00Z,30.3288,-87.8293,0.0,5.6,260.0,99.0,'11111222,11111222,11144222' 
DISL,ioos:station:DISL:BSCA:1,2012-07-02T07:30:00Z,30.3288,-87.8293,0.0,5.3,265.0,99.0,'11111222,11111222,11144222' 
DISL,ioos:station:DISL:BSCA:1,2012-07-02T08:00:00Z,30.3288,-87.8293,0.0,5.2,262.0,99.0,'11111222,11111222,11144222' 
DISL,ioos:station:DISL:BSCA:1,2012-07-02T08:30:00Z,30.3288,-87.8293,0.0,5.0,264.0,99.0,'11111222,11111222,11144222' 
DISL,ioos:station:DISL:BSCA:1,2012-07-02T09:00:00Z,30.3288,-87.8293,0.0,4.5,243.0,99.0,'11111222,11111222,11144222' 
DISL,ioos:station:DISL:BSCA:1,2012-07-02T09:30:00Z,30.3288,-87.8293,0.0,5.5,257.0,99.0,'11111222,11111222,11144222' 
DISL,ioos:station:DISL:BSCA:1,2012-07-02T10:00:00Z,30.3288,-87.8293,0.0,6.4,270.0,99.0,'11111222,11111222,11144222' 
DISL,ioos:station:DISL:BSCA:1,2012-07-02T10:30:00Z,30.3288,-87.8293,0.0,5.7,279.0,99.0,'11111222,11111222,11144222' 
DISL,ioos:station:DISL:BSCA:1,2012-07-02T11:00:00Z,30.3288,-87.8293,0.0,5.3,316.0,99.0,'11111222,11111222,11144222' 
DISL,ioos:station:DISL:BSCA:1,2012-07-02T11:30:00Z,30.3288,-87.8293,0.0,3.8,311.0,99.0,'11111222,11111222,11144222' 
DISL,ioos:station:DISL:BSCA:1,2012-07-02T12:00:00Z,30.3288,-87.8293,0.0,7.3,86.0,99.0,'11111222,11111222,11144222' 
DISL,ioos:station:DISL:BSCA:1,2012-07-02T12:30:00Z,30.3288,-87.8293,0.0,6.9,111.0,99.0,'11111222,11111222,11144222' 
DISL,ioos:station:DISL:BSCA:1,2012-07-02T13:00:00Z,30.3288,-87.8293,0.0,3.2,110.0,99.0,'11111222,11111222,11144222' 
DISL,ioos:station:DISL:BSCA:1,2012-07-02T13:30:00Z,30.3288,-87.8293,0.0,1.5,147.0,99.0,'11111222,11111222,11144222' 
DISL,ioos:station:DISL:BSCA:1,2012-07-02T14:00:00Z,30.3288,-87.8293,0.0,0.8,246.0,99.0,'11111222,11111222,11144222' 
DISL,ioos:station:DISL:BSCA:1,2012-07-02T14:30:00Z,30.3288,-87.8293,0.0,2.0,86.0,99.0,'11111222,11111222,11144222' 
DISL,ioos:station:DISL:BSCA:1,2012-07-02T15:00:00Z,30.3288,-87.8293,0.0,1.9,101.0,99.0,'11111222,11111222,11144222' 
DISL,ioos:station:DISL:BSCA:1,2012-07-02T15:30:00Z,30.3288,-87.8293,0.0,1.0,146.0,99.0,'11111222,11111222,11144222' 
DISL,ioos:station:DISL:BSCA:1,2012-07-02T16:00:00Z,30.3288,-87.8293,0.0,0.5,19.0,99.0,'11111222,11111222,11144222' 
DISL,ioos:station:DISL:BSCA:1,2012-07-02T16:30:00Z,30.3288,-87.8293,0.0,1.2,285.0,99.0,'11111222,11111222,11144222' 
DISL,ioos:station:DISL:BSCA:1,2012-07-02T17:00:00Z,30.3288,-87.8293,0.0,1.3,263.0,99.0,'11111222,11111222,11144222' 
DISL,ioos:station:DISL:BSCA:1,2012-07-02T17:30:00Z,30.3288,-87.8293,0.0,1.8,260.0,99.0,'11111222,11111222,11144222' 
DISL,ioos:station:DISL:BSCA:1,2012-07-02T18:00:00Z,30.3288,-87.8293,0.0,2.0,290.0,99.0,'11111222,11111222,11144222' 
DISL,ioos:station:DISL:BSCA:1,2012-07-02T18:30:00Z,30.3288,-87.8293,0.0,3.2,281.0,99.0,'11111222,11111222,11144222' 
DISL,ioos:station:DISL:BSCA:1,2012-07-02T19:00:00Z,30.3288,-87.8293,0.0,1.3,232.0,99.0,'11111222,11111222,11144222' 
DISL,ioos:station:DISL:BSCA:1,2012-07-02T19:30:00Z,30.3288,-87.8293,0.0,2.3,235.0,99.0,'11111222,11111222,11144222' 
DISL,ioos:station:DISL:BSCA:1,2012-07-02T20:00:00Z,30.3288,-87.8293,0.0,2.4,253.0,99.0,'11111222,11111222,11144222' 
DISL,ioos:station:DISL:BSCA:1,2012-07-02T20:30:00Z,30.3288,-87.8293,0.0,2.7,265.0,99.0,'11111222,11111222,11144222' 
DISL,ioos:station:DISL:BSCA:1,2012-07-02T21:00:00Z,30.3288,-87.8293,0.0,9.7,33.0,99.0,'11111222,11111222,11144222' 
DISL,ioos:station:DISL:BSCA:1,2012-07-02T21:30:00Z,30.3288,-87.8293,0.0,10.6,8.0,99.0,'11111222,11111222,11144222' 
DISL,ioos:station:DISL:BSCA:1,2012-07-02T22:00:00Z,30.3288,-87.8293,0.0,4.2,36.0,99.0,'11111222,11111222,11144222' 
DISL,ioos:station:DISL:BSCA:1,2012-07-02T22:30:00Z,30.3288,-87.8293,0.0,2.6,43.0,99.0,'11111222,11111222,11144222' 
DISL,ioos:station:DISL:BSCA:1,2012-07-02T23:00:00Z,30.3288,-87.8293,0.0,1.7,271.0,99.0,'11111222,11111222,11144222' 
DISL,ioos:station:DISL:BSCA:1,2012-07-02T23:30:00Z,30.3288,-87.8293,0.0,1.2,83.0,99.0,'11111222,11111222,11144222' 
DISL,ioos:station:DISL:BSCA:1,2012-07-03T00:00:00Z,30.3288,-87.8293,0.0,3.9,112.0,99.0,'11111222,11111222,11144222' 
DISL,ioos:station:DISL:BSCA:1,2012-07-03T00:30:00Z,30.3288,-87.8293,0.0,2.6,339.0,99.0,'11111222,11111222,11144222' 
DISL,ioos:station:DISL:BSCA:1,2012-07-03T01:00:00Z,30.3288,-87.8293,0.0,2.4,53.0,99.0,'11111222,11111222,11144222' 
DISL,ioos:station:DISL:BSCA:1,2012-07-03T01:30:00Z,30.3288,-87.8293,0.0,4.5,109.0,99.0,'11111222,11111222,11144222' 
DISL,ioos:station:DISL:BSCA:1,2012-07-03T02:00:00Z,30.3288,-87.8293,0.0,2.2,70.0,99.0,'11111222,11111222,11144222' 
DISL,ioos:station:DISL:BSCA:1,2012-07-03T02:30:00Z,30.3288,-87.8293,0.0,2.0,10.0,99.0,'11111222,11111222,11144222' 
DISL,ioos:station:DISL:BSCA:1,2012-07-03T03:00:00Z,30.3288,-87.8293,0.0,0.8,307.0,99.0,'11111222,11111222,11144222' 
DISL,ioos:station:DISL:BSCA:1,2012-07-03T03:30:00Z,30.3288,-87.8293,0.0,0.8,338.0,99.0,'11111222,11111222,11144222' 
DISL,ioos:station:DISL:BSCA:1,2012-07-03T04:00:00Z,30.3288,-87.8293,0.0,1.4,48.0,99.0,'11111222,11111222,11144222' 
DISL,ioos:station:DISL:BSCA:1,2012-07-03T04:30:00Z,30.3288,-87.8293,0.0,0.9,97.0,99.0,'11111222,11111222,11144222' 
DISL,ioos:station:DISL:BSCA:1,2012-07-03T05:00:00Z,30.3288,-87.8293,0.0,1.5,109.0,99.0,'11111222,11111222,11144222' 
DISL,ioos:station:DISL:BSCA:1,2012-07-03T05:30:00Z,30.3288,-87.8293,0.0,1.9,190.0,99.0,'11111222,11111222,11144222' 
DISL,ioos:station:DISL:BSCA:1,2012-07-03T06:00:00Z,30.3288,-87.8293,0.0,1.4,184.0,99.0,'11111222,11111222,11144222' 
DISL,ioos:station:DISL:BSCA:1,2012-07-03T06:30:00Z,30.3288,-87.8293,0.0,1.9,153.0,99.0,'11111222,11111222,11144222' 
DISL,ioos:station:DISL:BSCA:1,2012-07-03T07:00:00Z,30.3288,-87.8293,0.0,1.1,98.0,99.0,'11111222,11111222,11144222' 
DISL,ioos:station:DISL:BSCA:1,2012-07-03T07:30:00Z,30.3288,-87.8293,0.0,1.1,43.0,99.0,'11111222,11111222,11144222' 
DISL,ioos:station:DISL:BSCA:1,2012-07-03T08:00:00Z,30.3288,-87.8293,0.0,0.8,62.0,99.0,'11111222,11111222,11144222' 
DISL,ioos:station:DISL:BSCA:1,2012-07-03T08:30:00Z,30.3288,-87.8293,0.0,1.0,58.0,99.0,'11111222,11111222,11144222' 
DISL,ioos:station:DISL:BSCA:1,2012-07-03T09:00:00Z,30.3288,-87.8293,0.0,1.4,47.0,99.0,'11111222,11111222,11144222' 
DISL,ioos:station:DISL:BSCA:1,2012-07-03T09:30:00Z,30.3288,-87.8293,0.0,1.7,26.0,99.0,'11111222,11111222,11144222' 
DISL,ioos:station:DISL:BSCA:1,2012-07-03T10:00:00Z,30.3288,-87.8293,0.0,2.0,36.0,99.0,'11111222,11111222,11144222' 
DISL,ioos:station:DISL:BSCA:1,2012-07-03T10:30:00Z,30.3288,-87.8293,0.0,1.4,23.0,99.0,'11111222,11111222,11144222' 
DISL,ioos:station:DISL:BSCA:1,2012-07-03T11:00:00Z,30.3288,-87.8293,0.0,1.0,29.0,99.0,'11111222,11111222,11144222' 
DISL,ioos:station:DISL:BSCA:1,2012-07-03T11:30:00Z,30.3288,-87.8293,0.0,1.2,47.0,99.0,'11111222,11111222,11144222' 
DISL,ioos:station:DISL:BSCA:1,2012-07-03T12:00:00Z,30.3288,-87.8293,0.0,1.9,24.0,99.0,'11111222,11111222,11144222' 
DISL,ioos:station:DISL:BSCA:1,2012-07-03T12:30:00Z,30.3288,-87.8293,0.0,2.2,11.0,99.0,'11111222,11111222,11144222' 
DISL,ioos:station:DISL:BSCA:1,2012-07-03T13:00:00Z,30.3288,-87.8293,0.0,2.1,13.0,99.0,'11111222,11111222,11144222' 
DISL,ioos:station:DISL:BSCA:1,2012-07-03T13:30:00Z,30.3288,-87.8293,0.0,3.2,6.0,99.0,'11111222,11111222,11144222' 
DISL,ioos:station:DISL:BSCA:1,2012-07-03T14:00:00Z,30.3288,-87.8293,0.0,2.6,350.0,99.0,'11111222,11111222,11144222' 
DISL,ioos:station:DISL:BSCA:1,2012-07-03T14:30:00Z,30.3288,-87.8293,0.0,2.1,358.0,99.0,'11111222,11111222,11144222' 
DISL,ioos:station:DISL:BSCA:1,2012-07-03T15:00:00Z,30.3288,-87.8293,0.0,1.9,327.0,99.0,'11111222,11111222,11144222' 
DISL,ioos:station:DISL:BSCA:1,2012-07-03T15:30:00Z,30.3288,-87.8293,0.0,1.7,303.0,99.0,'11111222,11111222,11144222' 
DISL,ioos:station:DISL:BSCA:1,2012-07-03T16:00:00Z,30.3288,-87.8293,0.0,1.8,271.0,99.0,'11111222,11111222,11144222' 
DISL,ioos:station:DISL:BSCA:1,2012-07-03T16:30:00Z,30.3288,-87.8293,0.0,3.0,290.0,99.0,'11111222,11111222,11144222' 
DISL,ioos:station:DISL:BSCA:1,2012-07-03T17:00:00Z,30.3288,-87.8293,0.0,3.2,291.0,99.0,'11111222,11111222,11144222' 
DISL,ioos:station:DISL:BSCA:1,2012-07-03T17:30:00Z,30.3288,-87.8293,0.0,2.8,276.0,99.0,'11111222,11111222,11144222' 
DISL,ioos:station:DISL:BSCA:1,2012-07-03T18:00:00Z,30.3288,-87.8293,0.0,2.6,259.0,99.0,'11111222,11111222,11144222' 
DISL,ioos:station:DISL:BSCA:1,2012-07-03T18:30:00Z,30.3288,-87.8293,0.0,3.1,242.0,99.0,'11111222,11111222,11144222' 
DISL,ioos:station:DISL:BSCA:1,2012-07-03T19:00:00Z,30.3288,-87.8293,0.0,3.3,245.0,99.0,'11111222,11111222,11144222' 
DISL,ioos:station:DISL:BSCA:1,2012-07-03T19:30:00Z,30.3288,-87.8293,0.0,3.0,213.0,99.0,'11111222,11111222,11144222' 
DISL,ioos:station:DISL:BSCA:1,2012-07-03T20:00:00Z,30.3288,-87.8293,0.0,4.1,198.0,99.0,'11111222,11111222,11144222' 
DISL,ioos:station:DISL:BSCA:1,2012-07-03T20:30:00Z,30.3288,-87.8293,0.0,5.8,198.0,99.0,'11111222,11111222,11144222' 
DISL,ioos:station:DISL:BSCA:1,2012-07-03T21:00:00Z,30.3288,-87.8293,0.0,5.2,196.0,99.0,'11111222,11111222,11144222' 
DISL,ioos:station:DISL:BSCA:1,2012-07-03T21:30:00Z,30.3288,-87.8293,0.0,3.5,215.0,99.0,'11111222,11111222,11144222' 
DISL,ioos:station:DISL:BSCA:1,2012-07-03T22:00:00Z,30.3288,-87.8293,0.0,8.1,25.0,99.0,'11111222,11111222,11144222' 
DISL,ioos:station:DISL:BSCA:1,2012-07-03T22:30:00Z,30.3288,-87.8293,0.0,9.8,81.0,99.0,'11111222,11111222,11144222' 
DISL,ioos:station:DISL:BSCA:1,2012-07-03T23:00:00Z,30.3288,-87.8293,0.0,7.2,82.0,99.0,'11111222,11111222,11144222' 
DISL,ioos:station:DISL:BSCA:1,2012-07-03T23:30:00Z,30.3288,-87.8293,0.0,5.1,65.0,99.0,'11111222,11111222,11144222' 
DISL,ioos:station:DISL:BSCA:1,2012-07-04T00:00:00Z,30.3288,-87.8293,0.0,1.9,307.0,99.0,'11111222,11111222,11144222' 
DISL,ioos:station:DISL:BSCA:1,2012-07-04T00:30:00Z,30.3288,-87.8293,0.0,2.2,75.0,99.0,'11111222,11111222,11144222' 
DISL,ioos:station:DISL:BSCA:1,2012-07-04T01:00:00Z,30.3288,-87.8293,0.0,0.7,344.0,99.0,'11111222,11111222,11144222' 
DISL,ioos:station:DISL:BSCA:1,2012-07-04T01:30:00Z,30.3288,-87.8293,0.0,0.5,91.0,99.0,'11111222,11111222,11144222' 
DISL,ioos:station:DISL:BSCA:1,2012-07-04T02:00:00Z,30.3288,-87.8293,0.0,0.9,242.0,99.0,'11111222,11111222,11144222' 
DISL,ioos:station:DISL:BSCA:1,2012-07-04T02:30:00Z,30.3288,-87.8293,0.0,1.5,342.0,99.0,'11111222,11111222,11144222' 
DISL,ioos:station:DISL:BSCA:1,2012-07-04T03:00:00Z,30.3288,-87.8293,0.0,2.5,6.0,99.0,'11111222,11111222,11144222' 
DISL,ioos:station:DISL:BSCA:1,2012-07-04T03:30:00Z,30.3288,-87.8293,0.0,5.5,74.0,99.0,'11111222,11111222,11144222' 
DISL,ioos:station:DISL:BSCA:1,2012-07-04T04:00:00Z,30.3288,-87.8293,0.0,6.2,57.0,99.0,'11111222,11111222,11144222' 
DISL,ioos:station:DISL:BSCA:1,2012-07-04T04:30:00Z,30.3288,-87.8293,0.0,4.2,57.0,99.0,'11111222,11111222,11144222' 
DISL,ioos:station:DISL:BSCA:1,2012-07-04T05:00:00Z,30.3288,-87.8293,0.0,4.6,66.0,99.0,'11111222,11111222,11144222' 
DISL,ioos:station:DISL:BSCA:1,2012-07-04T05:30:00Z,30.3288,-87.8293,0.0,3.7,69.0,99.0,'11111222,11111222,11144222' 
DISL,ioos:station:DISL:BSCA:1,2012-07-04T06:00:00Z,30.3288,-87.8293,0.0,3.3,98.0,99.0,'11111222,11111222,11144222' 
DISL,ioos:station:DISL:BSCA:1,2012-07-04T06:30:00Z,30.3288,-87.8293,0.0,3.5,89.0,99.0,'11111222,11111222,11144222' 
DISL,ioos:station:DISL:BSCA:1,2012-07-04T07:00:00Z,30.3288,-87.8293,0.0,2.3,78.0,99.0,'11111222,11111222,11144222' 
DISL,ioos:station:DISL:BSCA:1,2012-07-04T07:30:00Z,30.3288,-87.8293,0.0,2.7,47.0,99.0,'11111222,11111222,11144222' 
DISL,ioos:station:DISL:BSCA:1,2012-07-04T08:00:00Z,30.3288,-87.8293,0.0,2.4,53.0,99.0,'11111222,11111222,11144222' 
DISL,ioos:station:DISL:BSCA:1,2012-07-04T08:30:00Z,30.3288,-87.8293,0.0,3.0,60.0,99.0,'11111222,11111222,11144222' 
DISL,ioos:station:DISL:BSCA:1,2012-07-04T09:00:00Z,30.3288,-87.8293,0.0,3.9,47.0,99.0,'11111222,11111222,11144222' 
DISL,ioos:station:DISL:BSCA:1,2012-07-04T09:30:00Z,30.3288,-87.8293,0.0,2.3,39.0,99.0,'11111222,11111222,11144222' 
DISL,ioos:station:DISL:BSCA:1,2012-07-04T10:00:00Z,30.3288,-87.8293,0.0,2.9,48.0,99.0,'11111222,11111222,11144222' 
DISL,ioos:station:DISL:BSCA:1,2012-07-04T10:30:00Z,30.3288,-87.8293,0.0,2.1,42.0,99.0,'11111222,11111222,11144222' 
DISL,ioos:station:DISL:BSCA:1,2012-07-04T11:00:00Z,30.3288,-87.8293,0.0,2.9,56.0,99.0,'11111222,11111222,11144222' 
DISL,ioos:station:DISL:BSCA:1,2012-07-04T11:30:00Z,30.3288,-87.8293,0.0,2.0,55.0,99.0,'11111222,11111222,11144222' 
DISL,ioos:station:DISL:BSCA:1,2012-07-04T12:00:00Z,30.3288,-87.8293,0.0,0.3,135.0,99.0,'11111222,11111222,11144222' 
DISL,ioos:station:DISL:BSCA:1,2012-07-04T12:30:00Z,30.3288,-87.8293,0.0,1.8,57.0,99.0,'11111222,11111222,11144222' 
DISL,ioos:station:DISL:BSCA:1,2012-07-04T13:00:00Z,30.3288,-87.8293,0.0,2.7,47.0,99.0,'11111222,11111222,11144222' 
DISL,ioos:station:DISL:BSCA:1,2012-07-04T13:30:00Z,30.3288,-87.8293,0.0,1.5,45.0,99.0,'11111222,11111222,11144222' 
DISL,ioos:station:DISL:BSCA:1,2012-07-04T14:00:00Z,30.3288,-87.8293,0.0,1.8,87.0,99.0,'11111222,11111222,11144222' 
DISL,ioos:station:DISL:BSCA:1,2012-07-04T14:30:00Z,30.3288,-87.8293,0.0,1.7,117.0,99.0,'11111222,11111222,11144222' 
DISL,ioos:station:DISL:BSCA:1,2012-07-04T15:00:00Z,30.3288,-87.8293,0.0,1.5,143.0,99.0,'11111222,11111222,11144222' 
DISL,ioos:station:DISL:BSCA:1,2012-07-04T15:30:00Z,30.3288,-87.8293,0.0,1.0,163.0,99.0,'11111222,11111222,11144222' 
DISL,ioos:station:DISL:BSCA:1,2012-07-04T16:00:00Z,30.3288,-87.8293,0.0,0.4,141.0,99.0,'11111222,11111222,11144222' 
DISL,ioos:station:DISL:BSCA:1,2012-07-04T16:30:00Z,30.3288,-87.8293,0.0,1.4,195.0,99.0,'11111222,11111222,11144222' 
DISL,ioos:station:DISL:BSCA:1,2012-07-04T17:00:00Z,30.3288,-87.8293,0.0,8.1,212.0,99.0,'11111222,11111222,11144222' 
DISL,ioos:station:DISL:BSCA:1,2012-07-04T17:30:00Z,30.3288,-87.8293,0.0,7.3,237.0,99.0,'11111222,11111222,11144222' 
DISL,ioos:station:DISL:BSCA:1,2012-07-04T18:00:00Z,30.3288,-87.8293,0.0,7.1,243.0,99.0,'11111222,11111222,11144222' 
DISL,ioos:station:DISL:BSCA:1,2012-07-04T18:30:00Z,30.3288,-87.8293,0.0,3.7,18.0,99.0,'11111222,11111222,11144222' 
DISL,ioos:station:DISL:BSCA:1,2012-07-04T19:00:00Z,30.3288,-87.8293,0.0,4.9,314.0,99.0,'11111222,11111222,11144222' 
DISL,ioos:station:DISL:BSCA:1,2012-07-04T19:30:00Z,30.3288,-87.8293,0.0,4.9,299.0,99.0,'11111222,11111222,11144222' 
DISL,ioos:station:DISL:BSCA:1,2012-07-04T20:00:00Z,30.3288,-87.8293,0.0,2.6,324.0,99.0,'11111222,11111222,11144222' 
DISL,ioos:station:DISL:BSCA:1,2012-07-04T20:30:00Z,30.3288,-87.8293,0.0,1.9,50.0,99.0,'11111222,11111222,11144222' 
DISL,ioos:station:DISL:BSCA:1,2012-07-04T21:00:00Z,30.3288,-87.8293,0.0,2.0,68.0,99.0,'11111222,11111222,11144222' 
DISL,ioos:station:DISL:BSCA:1,2012-07-04T21:30:00Z,30.3288,-87.8293,0.0,1.5,103.0,99.0,'11111222,11111222,11144222' 
DISL,ioos:station:DISL:BSCA:1,2012-07-04T22:00:00Z,30.3288,-87.8293,0.0,1.9,164.0,99.0,'11111222,11111222,11144222' 
DISL,ioos:station:DISL:BSCA:1,2012-07-04T22:30:00Z,30.3288,-87.8293,0.0,0.5,2.0,99.0,'11111222,11111222,11144222' 
DISL,ioos:station:DISL:BSCA:1,2012-07-04T23:00:00Z,30.3288,-87.8293,0.0,1.0,298.0,99.0,'11111222,11111222,11144222' 
DISL,ioos:station:DISL:BSCA:1,2012-07-04T23:30:00Z,30.3288,-87.8293,0.0,0.8,272.0,99.0,'11111222,11111222,11144222' 
DISL,ioos:station:DISL:BSCA:1,2012-07-05T00:00:00Z,30.3288,-87.8293,0.0,3.5,285.0,99.0,'11111222,11111222,11144222' 
DISL,ioos:station:DISL:BSCA:1,2012-07-05T00:30:00Z,30.3288,-87.8293,0.0,4.0,307.0,99.0,'11111222,11111222,11144222' 
DISL,ioos:station:DISL:BSCA:1,2012-07-05T01:00:00Z,30.3288,-87.8293,0.0,2.9,310.0,99.0,'11111222,11111222,11144222' 
DISL,ioos:station:DISL:BSCA:1,2012-07-05T01:30:00Z,30.3288,-87.8293,0.0,1.3,351.0,99.0,'11111222,11111222,11144222' 
DISL,ioos:station:DISL:BSCA:1,2012-07-05T02:00:00Z,30.3288,-87.8293,0.0,2.7,283.0,99.0,'11111222,11111222,11144222' 
DISL,ioos:station:DISL:BSCA:1,2012-07-05T02:30:00Z,30.3288,-87.8293,0.0,3.4,278.0,99.0,'11111222,11111222,11144222' 
DISL,ioos:station:DISL:BSCA:1,2012-07-05T03:00:00Z,30.3288,-87.8293,0.0,2.7,315.0,99.0,'11111222,11111222,11144222' 
DISL,ioos:station:DISL:BSCA:1,2012-07-05T03:30:00Z,30.3288,-87.8293,0.0,2.2,49.0,99.0,'11111222,11111222,11144222' 
DISL,ioos:station:DISL:BSCA:1,2012-07-05T04:00:00Z,30.3288,-87.8293,0.0,1.4,67.0,99.0,'11111222,11111222,11144222' 
DISL,ioos:station:DISL:BSCA:1,2012-07-05T04:30:00Z,30.3288,-87.8293,0.0,1.3,99.0,99.0,'11111222,11111222,11144222' 
DISL,ioos:station:DISL:BSCA:1,2012-07-05T05:00:00Z,30.3288,-87.8293,0.0,2.7,96.0,99.0,'11111222,11111222,11144222' 
DISL,ioos:station:DISL:BSCA:1,2012-07-05T05:30:00Z,30.3288,-87.8293,0.0,1.7,89.0,99.0,'11111222,11111222,11144222' 